Tracking 25710 objects as of 7-Jul-2022
HD Live streaming from Space Station
objects crossing your sky now

FENGYUN 1C DEB

Track FENGYUN 1C DEB now!
10-day predictions


NORAD ID: 32357
Int'l Code: 1999-025CZA
Perigee: 662.2 km
Apogee: 1,502.8 km
Inclination: 98.9 °
Period: 106.7 minutes
Semi major axis: 7453 km
RCS: 0.0112 m2 (small)
Launch date: May 10, 1999
Source: People's Republic of China (PRC)
Launch site: Taiyaun Space Center, China (TSC)

Note: This is SATELLITE DEBRIS
aabbcc
Your satellite tracking list
Your tracking list is empty




NASA's NSSDC Master Catalog

Two Line Element Set (TLE):
1 32357U 99025CZA 22187.17796389  .00003193  00000-0  19062-2 0  9991
2 32357  98.8960 321.2146 0563851 206.5392 284.7614 13.49155777738195
Source of the keplerian elements: AFSPC